Adak, AK

9:01 PM HDT on April 23, 2017 (GMT -0900)
Adak

Weather History for PADK - November, 2011

Change the Weather History Date:

Saturday, November 26, 2011

  Actual Average Record
Temperature  
Mean Temperature 36 °F -  
Max Temperature 39 °F 40 °F 51 °F (1970)
Min Temperature 33 °F 30 °F 19 °F (1968)
Degree Days  
Heating Degree Days 29    
Moisture  
Dew Point 35 °F    
Average Humidity 95    
Maximum Humidity 100    
Minimum Humidity 87    
Precipitation  
Precipitation 0.00 in - - ()
Sea Level Pressure  
Sea Level Pressure 29.31 in    
Wind  
Wind Speed 15 mph (WSW)    
Max Wind Speed 60 mph    
Max Gust Speed 90 mph    
Visibility 10 miles    
Events      
Averages and records for this station are not official NWS values.
T = Trace of Precipitation, MM = Missing Value Source: NWS Daily Summary

Daily Weather History Graph

Daily Weather History Graph

Search for Another Location

Airport or City:

Trip Planner

Search our weather history database for the weather conditions in past years. The results will help you decide how hot, cold, wet, or windy it might be!

Date:

Astronomy

Nov. 26, 2011 Rise Set
Actual Time 9:24 AM HST 5:43 PM HST
Civil Twilight 8:45 AM HST 6:22 PM HST
Nautical Twilight 8:03 AM HST 7:04 PM HST
Astronomical Twilight 7:22 AM HST 7:44 PM HST
Moon 11:16 AM HST (11/26) 7:23 PM HST (11/26)
Length of Visible Light 9h 36m
Length of Day
8h 18m
Waxing Crescent, 4% of the Moon is Illuminated
Nov 26
Waxing Crescent
Dec 1
First Quarter
Dec 10
Full
Dec 17
Last Quarter
Dec 24
New

Hourly Weather History & Observations

Time (HST) Temp. Windchill Dew Point Humidity Pressure Visibility Wind Dir Wind Speed Gust Speed Precip Events Conditions
12:16 AM 39.2 °F 32.0 °F 39.2 °F 100% 29.45 in 10.0 mi South 11.5 mph - N/A   Overcast
12:36 AM 39.2 °F 31.6 °F 39.2 °F 100% 29.43 in 10.0 mi SSW 12.7 mph - N/A   Overcast
12:56 AM 39.2 °F 31.6 °F 39.2 °F 100% 29.41 in 10.0 mi SW 12.7 mph - N/A   Overcast
1:16 AM 39.2 °F 30.5 °F 37.4 °F 93% 29.39 in 10.0 mi WSW 16.1 mph 20.7 mph N/A   Mostly Cloudy
1:36 AM 39.2 °F 30.5 °F 39.2 °F 100% 29.36 in 8.0 mi WSW 16.1 mph - N/A   Mostly Cloudy
1:56 AM 39.2 °F 31.6 °F 39.2 °F 100% 29.34 in 8.0 mi West 12.7 mph - N/A   Mostly Cloudy
2:16 AM 39.2 °F 30.2 °F 37.4 °F 93% 29.35 in 10.0 mi WSW 17.3 mph 24.2 mph N/A   Mostly Cloudy
2:36 AM 37.4 °F 27.2 °F 37.4 °F 100% 29.34 in 2.5 mi West 19.6 mph 26.5 mph N/A   Overcast
2:56 AM 37.4 °F 28.9 °F 37.4 °F 100% 29.35 in 10.0 mi WSW 13.8 mph - N/A   Overcast
3:16 AM 35.6 °F 27.1 °F 35.6 °F 100% 29.35 in 10.0 mi SW 12.7 mph - N/A   Overcast
3:36 AM 37.4 °F 29.8 °F 37.4 °F 100% 29.34 in 10.0 mi West 11.5 mph 17.3 mph N/A   Mostly Cloudy
3:56 AM 35.6 °F 30.7 °F 35.6 °F 100% 29.35 in 10.0 mi WSW 5.8 mph - N/A   Partly Cloudy
4:16 AM 35.6 °F 31.7 °F 35.6 °F 100% 29.34 in 10.0 mi South 4.6 mph - N/A   Partly Cloudy
4:36 AM 35.6 °F 30.7 °F 33.8 °F 93% 29.34 in 10.0 mi WSW 5.8 mph - N/A   Partly Cloudy
4:56 AM 33.8 °F - 33.8 °F 100% 29.33 in 10.0 mi Calm Calm - N/A   Clear
5:16 AM 33.8 °F 25.3 °F 33.8 °F 100% 29.32 in 10.0 mi West 11.5 mph - N/A   Clear
5:36 AM 33.8 °F 25.8 °F 32.0 °F 93% 29.31 in 10.0 mi West 10.4 mph - N/A   Clear
5:56 AM 35.6 °F 28.0 °F 35.6 °F 100% 29.33 in 10.0 mi WSW 10.4 mph 17.3 mph N/A   Partly Cloudy
6:16 AM 33.8 °F 24.3 °F 33.8 °F 100% 29.33 in 10.0 mi WSW 13.8 mph - N/A   Scattered Clouds
6:36 AM 35.6 °F 29.2 °F 35.6 °F 100% 29.33 in 10.0 mi WSW 8.1 mph - N/A   Mostly Cloudy
6:56 AM 35.6 °F 28.0 °F 33.8 °F 93% 29.32 in 10.0 mi West 10.4 mph - N/A   Overcast
7:16 AM 35.6 °F 29.2 °F 33.8 °F 93% 29.31 in 10.0 mi WSW 8.1 mph - N/A   Overcast
7:36 AM 33.8 °F 26.4 °F 33.8 °F 100% 29.31 in 10.0 mi SW 9.2 mph - N/A   Scattered Clouds
7:56 AM 35.6 °F 28.6 °F 35.6 °F 100% 29.30 in 10.0 mi WSW 9.2 mph - N/A   Mostly Cloudy
8:16 AM 35.6 °F 25.9 °F 35.6 °F 100% 29.30 in 10.0 mi WSW 16.1 mph - N/A   Overcast
8:36 AM 35.6 °F 26.2 °F 35.6 °F 100% 29.30 in 10.0 mi West 15.0 mph - N/A   Overcast
8:56 AM 35.6 °F 25.2 °F 35.6 °F 100% 29.30 in 10.0 mi WSW 18.4 mph - N/A   Overcast
9:16 AM 35.6 °F 25.5 °F 33.8 °F 93% 29.30 in 10.0 mi WSW 17.3 mph - N/A   Overcast
9:36 AM 37.4 °F 27.8 °F 35.6 °F 93% 29.30 in 10.0 mi WSW 17.3 mph 21.9 mph N/A   Overcast
9:56 AM 37.4 °F 28.5 °F 35.6 °F 93% 29.30 in 10.0 mi WSW 15.0 mph - N/A   Mostly Cloudy
10:16 AM 37.4 °F 28.9 °F 35.6 °F 93% 29.29 in 10.0 mi SW 13.8 mph - N/A   Overcast
10:36 AM 37.4 °F 26.1 °F 35.6 °F 93% 29.29 in 10.0 mi SW 24.2 mph 28.8 mph N/A   Overcast
10:56 AM 37.4 °F 27.2 °F 35.6 °F 93% 29.29 in 10.0 mi WSW 19.6 mph - N/A   Overcast
11:16 AM 37.4 °F 26.9 °F 35.6 °F 93% 29.30 in 10.0 mi WSW 20.7 mph 28.8 mph N/A   Mostly Cloudy
11:36 AM 37.4 °F 26.6 °F 35.6 °F 93% 29.30 in 10.0 mi WSW 21.9 mph 31.1 mph N/A   Mostly Cloudy
11:56 AM 37.4 °F 26.4 °F 35.6 °F 93% 29.30 in 10.0 mi WSW 23.0 mph 28.8 mph N/A   Scattered Clouds
12:16 PM 37.4 °F 26.1 °F 35.6 °F 93% 29.28 in 10.0 mi WSW 24.2 mph 32.2 mph N/A   Clear
12:36 PM 37.4 °F 26.1 °F 35.6 °F 93% 29.28 in 10.0 mi WSW 24.2 mph 28.8 mph N/A   Partly Cloudy
12:56 PM 37.4 °F 27.2 °F 35.6 °F 93% 29.28 in 10.0 mi WSW 19.6 mph 27.6 mph N/A   Scattered Clouds
1:16 PM 39.2 °F 28.5 °F 37.4 °F 93% 29.27 in 10.0 mi WSW 24.2 mph 27.6 mph N/A   Overcast
1:36 PM 37.4 °F 26.6 °F 35.6 °F 93% 29.27 in 10.0 mi WSW 21.9 mph - N/A   Mostly Cloudy
1:56 PM 37.4 °F 25.0 °F 35.6 °F 93% 29.26 in 10.0 mi WSW 29.9 mph 38.0 mph N/A   Partly Cloudy
2:16 PM 37.4 °F 26.4 °F 35.6 °F 93% 29.26 in 10.0 mi WSW 23.0 mph 33.4 mph N/A   Scattered Clouds
2:36 PM 37.4 °F 25.9 °F 33.8 °F 87% 29.25 in 10.0 mi WSW 25.3 mph 32.2 mph N/A   Partly Cloudy
2:56 PM 37.4 °F 25.9 °F 33.8 °F 87% 29.25 in 10.0 mi WSW 25.3 mph 31.1 mph N/A   Scattered Clouds
3:16 PM 37.4 °F 25.9 °F 33.8 °F 87% 29.24 in 10.0 mi WSW 25.3 mph 29.9 mph N/A   Mostly Cloudy
3:36 PM 37.4 °F 25.2 °F 33.8 °F 87% 29.24 in 10.0 mi WSW 28.8 mph 34.5 mph N/A   Scattered Clouds
3:56 PM 37.4 °F 26.4 °F 33.8 °F 87% 29.24 in 10.0 mi West 23.0 mph 33.4 mph N/A   Mostly Cloudy
4:16 PM 37.4 °F 26.1 °F 33.8 °F 87% 29.24 in 10.0 mi WSW 24.2 mph 32.2 mph N/A   Overcast
4:36 PM 37.4 °F 26.1 °F 33.8 °F 87% 29.24 in 10.0 mi WSW 24.2 mph 32.2 mph N/A   Scattered Clouds
4:56 PM 35.6 °F 23.7 °F 33.8 °F 93% 29.24 in 10.0 mi WSW 24.2 mph - N/A   Partly Cloudy
5:16 PM 35.6 °F 18.4 °F 33.8 °F 93% 29.26 in 2.5 mi WSW 59.8 mph 89.8 mph N/A   Mostly Cloudy
5:36 PM 33.8 °F 22.5 °F 32.0 °F 93% 29.25 in 5.0 mi West 19.6 mph 31.1 mph N/A   Overcast
5:56 PM 33.8 °F 23.2 °F 32.0 °F 93% 29.25 in 10.0 mi West 17.3 mph - N/A   Partly Cloudy
6:16 PM 33.8 °F 23.9 °F 32.0 °F 93% 29.25 in 10.0 mi West 15.0 mph 20.7 mph N/A   Clear
6:36 PM 33.8 °F 23.9 °F 33.8 °F 100% 29.25 in 10.0 mi WSW 15.0 mph 21.9 mph N/A   Scattered Clouds
6:56 PM 35.6 °F 25.9 °F 33.8 °F 93% 29.25 in 10.0 mi WSW 16.1 mph 25.3 mph N/A   Overcast
7:16 PM 35.6 °F 24.5 °F 33.8 °F 93% 29.25 in 10.0 mi WSW 20.7 mph - N/A   Overcast
7:36 PM 33.8 °F 23.5 °F 30.2 °F 87% 29.26 in 10.0 mi West 16.1 mph - N/A   Mostly Cloudy
7:56 PM 35.6 °F 26.2 °F 32.0 °F 87% 29.26 in 10.0 mi WSW 15.0 mph - N/A   Overcast
8:16 PM 35.6 °F 25.2 °F 32.0 °F 87% 29.26 in 10.0 mi WSW 18.4 mph 25.3 mph N/A   Mostly Cloudy
8:36 PM 33.8 °F 22.5 °F 32.0 °F 93% 29.26 in 10.0 mi WSW 19.6 mph - N/A   Mostly Cloudy
8:56 PM 35.6 °F 24.2 °F 30.2 °F 81% 29.27 in 10.0 mi WSW 21.9 mph 25.3 mph N/A   Mostly Cloudy
9:16 PM 33.8 °F 21.9 °F 32.0 °F 93% 29.27 in 10.0 mi WSW 21.9 mph - N/A   Mostly Cloudy
9:36 PM 33.8 °F 22.5 °F 30.2 °F 87% 29.27 in 10.0 mi WSW 19.6 mph - N/A   Scattered Clouds
9:56 PM 33.8 °F 21.9 °F 30.2 °F 87% 29.27 in 10.0 mi WSW 21.9 mph - N/A   Partly Cloudy
10:16 PM 33.8 °F 24.8 °F 30.2 °F 87% 29.27 in 10.0 mi WSW 12.7 mph - N/A   Mostly Cloudy
10:36 PM 33.8 °F 23.2 °F 30.2 °F 87% 29.26 in 10.0 mi WSW 17.3 mph - N/A   Mostly Cloudy
10:56 PM 33.8 °F 23.9 °F 33.8 °F 100% 29.27 in 10.0 mi WSW 15.0 mph - N/A   Mostly Cloudy
11:16 PM 35.6 °F 24.5 °F 32.0 °F 87% 29.26 in 10.0 mi WSW 20.7 mph 24.2 mph N/A   Scattered Clouds
11:36 PM 35.6 °F 24.0 °F 32.0 °F 87% 29.26 in 10.0 mi SW 23.0 mph 27.6 mph N/A   Mostly Cloudy
11:56 PM 35.6 °F 24.0 °F 32.0 °F 87% 29.25 in 10.0 mi WSW 23.0 mph 28.8 mph N/A   Mostly Cloudy